Location: Hodgson Observatory
(42.9992°N, 96.7577°W)
Time: 15:04:50
(UTC-05:00)

Daily predictions for brighter satellites

Satellite Brightness Start Highest point End
(mag) Time Altitude Azimuth Time Altitude Azimuth Time Altitude Azimuth
Cosmos 2034 Rocket 4.2 21:23:01 10° N 21:29:20 58° E 21:35:33 10° SSE
SPOT 5 3.5 21:25:54 10° SE 21:29:51 34° ENE 21:33:46 10° N
COSMOS 2455 3.6 21:24:57 10° SSE 21:30:06 31° ESE 21:35:17 10° NE
CZ-4 DEB 4.1 21:27:16 10° S 21:30:19 40° W 21:33:25 10° NNW
Meteor 1-23 Rocket 4.3 21:25:00 10° S 21:30:39 83° E 21:36:24 10° NNE
ALOS 3.1 21:26:49 10° S 21:31:22 53° W 21:35:57 10° NNW
BREEZE-M DEB (TANK) 2.2 21:30:18 10° WNW 21:33:15 53° SW 21:35:19 10° SE
Cosmos 1603 4.0 21:28:08 10° S 21:33:25 44° ESE 21:38:43 10° NE
CZ-4 SHROUD 4.2 21:32:10 10° SE 21:35:01 32° ENE 21:37:53 10° N
Cosmos 1626 Rocket 3.9 21:32:26 10° SSE 21:36:40 46° E 21:40:54 10° NNE
Meteor 2-9 Rocket 4.3 21:31:14 10° N 21:36:58 85° E 21:42:46 10° S
Lacrosse 5 4.4 21:35:42 10° WNW 21:39:45 23° NNW 21:43:49 10° NNE
Cosmos 494 Rocket 4.3 21:35:26 10° SSW 21:40:31 73° WNW 21:45:40 10° NNE
YAOGAN 6 4.2 21:39:54 10° ESE 21:42:46 21° ENE 21:45:40 10° NNE
Cosmos 2228 3.1 21:38:23 10° N 21:42:49 89° ENE 21:47:14 10° S
Terra 4.0 21:46:13 10° ENE 21:47:26 11° ENE 21:48:40 10° NE
Meteor 2-4 Rocket 4.2 21:41:42 10° SSW 21:47:34 72° WNW 21:53:31 10° N
Cosmos 1943 4.1 21:52:15 10° SSE 21:57:02 29° ESE 22:01:51 10° NE
Okean 2 4.4 21:53:08 10° SSW 21:57:11 50° W 22:01:17 10° N
PSLV R/B 3.2 21:55:18 12° SSE 21:58:05 64° ENE 22:01:10 10° N
Cosmos 1943 Rocket 4.1 21:56:34 10° N 22:00:10 17° NE 22:03:44 10° E
MetOp-A 4.3 21:55:39 11° SSE 22:00:44 58° ENE 22:06:00 10° N
Aureole 2 Rocket 3.6 21:57:11 10° SW 22:00:59 50° WNW 22:04:26 10° N
H-2A R/B 3.8 21:58:01 10° E 22:01:09 17° ENE 22:04:19 10° NNE
Nimbus 7 Rocket 4.4 21:56:27 10° NNE 22:02:28 82° ESE 22:08:22 10° SSW
Lacrosse 4 Rocket 2.9 22:03:02 15° ESE 22:03:58 16° ESE 22:06:27 10° ENE
UNK 4.3 22:02:12 10° NNE 22:07:34 59° ESE 22:13:10 10° S
SeaSat 1 2.5 22:04:20 13° SSE 22:08:43 84° ENE 22:13:41 10° NNW
SPOT 1/Viking Rocket 3.9 22:05:20 14° SE 22:09:31 49° ENE 22:14:28 10° N
CZ-2C R/B 3.5 22:08:30 10° SW 22:09:46 13° W 22:11:01 10° WNW
Milstar 3 Cent rocket 4.4 22:10:45 10° SW 22:12:55 11° SW 22:14:48 10° SSW
CZ-4B R/B 3.6 22:11:37 10° NNE 22:16:38 56° ESE 22:21:44 10° S
Cosmos 1238 4.0 22:18:37 12° S 22:21:26 82° E 22:24:27 10° N
Cosmos 1461 4.1 22:19:08 10° NW 22:23:02 34° WSW 22:26:14 13° S
Cosmos 1758 Rocket 4.4 22:27:03 22° SE 22:29:03 32° E 22:32:56 10° NNE
ARGOS 3.2 22:33:16 21° SSE 22:36:59 70° ENE 22:42:25 10° N
ATLAS 3B R/B 3.0 22:31:39 10° SSW 22:39:06 55° ESE 22:46:24 10° NE
Cosmos 2369 Rocket 2.2 22:34:18 10° NNW 22:40:00 74° ENE 22:43:28 24° SE
Cosmos 1825 Rocket 3.5 22:43:04 17° S 22:46:27 87° E 22:50:55 10° N
CZ-4C R/B 3.6 22:46:15 30° SE 22:48:13 63° ENE 22:52:15 10° N
ISS -3.3 22:46:48 10° WSW 22:50:03 79° NW 22:53:20 10° NE
Envisat 4.4 22:46:14 10° SSW 22:50:48 34° W 22:55:25 10° NNW
Atlas Centaur 2 3.7 22:44:48 10° SW 22:51:36 33° S 22:55:21 23° SE
USA 234 3.3 22:48:30 23° SE 22:52:50 76° SW 22:59:26 10° NW
NOAA 11 4.1 22:49:51 24° SSE 22:53:13 87° ENE 22:58:41 10° NNW
SL-27 R/B 4.4 22:54:51 15° ENE 22:54:51 15° ENE 22:56:05 10° NE
PSLV R/B 3.3 22:51:26 10° WSW 22:54:57 60° S 22:55:53 42° ESE
Cosmos 407 Rocket 3.5 22:51:26 20° S 22:55:04 62° ESE 23:00:14 10° NNE
CZ-4 R/B 4.0 22:54:25 10° NNE 22:59:25 84° WNW 23:03:32 16° SSW
SL-08 RB Rocket 3.7 22:59:25 30° S 23:01:42 81° W 23:06:15 10° NNW
Cosmos 1953 3.1 23:02:15 10° N 23:05:55 34° ENE 23:06:37 32° E
Cosmos 2263 4.1 23:00:34 10° NNW 23:06:13 86° ENE 23:08:56 32° SSE
Lacrosse 5 rocket 4.5 23:05:26 10° NW 23:07:41 14° NNW 23:09:59 10° NNE
Landsat 7 3.7 23:06:30 34° SSE 23:08:36 86° ENE 23:13:23 10° NNW
COSMOS 2406 4.1 23:09:28 28° ESE 23:10:21 30° ESE 23:15:15 10° NE
Spot 4 4.2 23:09:15 34° SE 23:10:58 52° ENE 23:15:37 10° N
Meteor 1-22 Rocket 4.3 23:05:54 10° NNW 23:11:27 74° W 23:14:44 27° S
Cosmos 1954 Rocket 4.2 23:12:38 34° SSE 23:14:36 53° ESE 23:19:46 10° NNE
Cosmos 1634 Rocket 4.4 23:09:02 10° NNW 23:15:04 57° W 23:19:21 20° SSW
COSMOS 2455 3.9 23:10:02 10° SW 23:15:48 47° NW 23:21:38 10° NNE
YAOGAN 6 4.4 23:14:14 17° SW 23:16:13 26° W 23:19:26 10° NW
USA 238 DEB 4.2 23:13:44 29° SSE 23:16:33 41° ESE 23:23:04 10° NE
USA 238 4.2 23:13:55 29° SSE 23:16:39 40° ESE 23:23:09 10° NE
Terra 1.7 23:22:47 42° SSE 23:24:24 86° ENE 23:29:12 10° NNW
CZ-4C R/B 4.3 23:26:52 11° E 23:26:52 11° E 23:27:14 10° E
Cosmos 1346 Rocket 3.8 23:24:23 22° SW 23:26:32 43° WNW 23:30:19 10° N
Kosmos-1675 3.8 23:26:30 34° SSW 23:27:55 86° ESE 23:37:55 10° NE
IGS 5A 3.3 23:27:36 54° SSE 23:28:30 87° E 23:32:41 10° NNW
Cosmos 1544 4.5 23:26:44 10° NNE 23:29:59 27° ENE 23:29:59 27° ENE
BREEZE-M DEB (TANK) 3.6 23:28:52 10° W 23:31:05 30° NNW 23:31:27 27° N
SL-23 DEB 3.9 23:25:56 10° SW 23:31:38 67° SE 23:35:11 10° ENE
Cosmos 2084 3.9 23:29:30 10° NNW 23:33:34 52° NE 23:34:32 42° E
Cosmos 2279 Rocket 4.2 23:32:12 10° NNW 23:38:24 65° W 23:41:33 30° SSW
H-2A R/B 2.1 23:38:18 39° SSW 23:40:00 64° WSW 23:45:03 10° NNW
SAR-Lupe-2 4.2 23:39:44 44° WSW 23:40:06 46° W 23:43:35 10° NNW
Cosmos 1842 3.4 23:39:24 51° SW 23:40:12 67° W 23:44:07 10° N
Cosmos 1943 4.3 23:35:29 10° SW 23:40:52 43° WNW 23:46:18 10° NNE
Lacrosse 4 Rocket 2.3 23:39:17 16° SW 23:42:17 46° WNW 23:46:16 10° NNE
Geosat 4.5 23:37:34 10° NNE 23:42:32 60° WNW 23:46:45 14° SW
Cosmos 2221 4.2 23:41:13 10° NNE 23:44:28 20° ENE 23:44:51 20° E
Cosmos 1943 Rocket 2.1 23:39:04 10° NNW 23:44:38 85° WSW 23:46:20 47° SSE
Cosmos-2242 3.3 23:43:15 10° NNW 23:47:37 63° W 23:48:32 49° SSW
Cosmos 1570 Rocket 4.1 23:43:13 10° NNW 23:48:36 72° ENE 23:50:01 49° SE
Cosmos 1850 Rocket 4.1 23:50:16 51° SE 23:51:01 56° ESE 23:56:08 10° NNE
Cosmos 1932 4.3 23:47:33 27° SSW 23:51:08 82° ESE 23:57:24 10° NE
Cosmos 1758 3.4 23:47:36 10° NNW 23:51:43 70° W 23:52:08 64° SW
